リニア彗星

C/1999 K5 ( LINEAR )

English version
Home page
Updated on July 29, 2002

---------------------------------------------------------------------

・ プロフィール

発見日 1999年 5月20日
発見光度 17.2等
発見者 Lincoln Laboratory Near-Earth Asteroid Research project

・ 写真集

・ 軌道要素

Epoch 2000 June 25.0 TT = JDT 2451720.5
T 2000 July 4.3931 TT                                   MPCN
q   3.255382             (2000.0)            P               Q
z  -0.000514       Peri.  241.4871      +0.1423834      -0.2436174
 +/-0.000001       Node   106.3818      -0.0685799      +0.9644808
e   1.001673       Incl.   89.4732      -0.9874329      -0.1021143
From 210 observations 1999 May 20-2002 Jan. 24, mean residual 0".6.

・ 星図

・ 光度変化

        m1 = 5.8 + 5 logΔ + 10.0 log r  [   ,  0]  (              〜2000年 7月 4日)
        m1 = 8.2 + 5 logΔ +  5.0 log r  [  0,200]  (2000年 7月 4日〜2001年 1月20日)
        m1 = 5.9 + 5 logΔ +  9.0 log r  [200,   ]  (2001年 1月20日〜              )

---------------------------------------------------------------------

軌道要素はMPCのEphemerides and Orbital Elementsに掲載されたものです。
星図は StellaNavigator Ver.2.0 for Windows (アストロアーツ 編著 / アスキー出版局刊) で作成したものです。
光度グラフはComet for Windowsで作成したものです。

---------------------------------------------------------------------

Copyright(C) Seiichi Yoshida (comet@aerith.net). All rights reserved.